N2PUI Weather Reports


time (UTC)temp
C
wind
direction
speed
KPH
gust
KPH
rain 1hr
cm
rain 24hr
cm
rain mn
cm
humidity
%
barometer
mb
20260905185619 22 108 3.2 4.8 0.00 0.00 0.00 65 1013.7
20260905185114 23 271 3.2 3.2 0.00 0.00 0.00 62 1013.7
20260905184609 22 214 4.8 4.8 0.00 0.00 0.00 61 1013.7
20260905184108 22 15 4.8 4.8 0.00 0.00 0.00 63 1013.8
20260905183607 23 228 3.2 3.2 0.00 0.00 0.00 65 1013.7
20260905183103 23 10 3.2 3.2 0.00 0.00 0.00 61 1013.5
20260905182602 23 283 3.2 3.2 0.00 0.00 0.00 63 1013.6
20260905182056 22 64 3.2 4.8 0.00 0.00 0.00 65 1013.4
20260905181551 22 176 0.0 0.0 0.00 0.00 0.00 64 1013.7
20260905181050 22 296 6.4 8.0 0.00 0.00 0.00 62 1013.9
20260905180545 23 292 6.4 9.7 0.00 0.00 0.00 65 1013.7
20260905180041 22 359 3.2 4.8 0.00 0.00 0.00 68 1013.6
20260905175539 22 121 1.6 1.6 0.00 0.00 0.00 68 1013.8
20260905175036 22 7 3.2 3.2 0.00 0.00 0.00 66 1013.8
20260905174531 22 325 4.8 8.0 0.00 0.00 0.00 66 1013.9
20260905174026 22 34 4.8 8.0 0.00 0.00 0.00 65 1013.7
20260905173523 22 207 1.6 3.2 0.00 0.00 0.00 68 1013.6
20260905173018 22 224 1.6 1.6 0.00 0.00 0.00 67 1013.8
20260905172516 22 14 6.4 11.3 0.00 0.00 0.00 66 1013.9
20260905172012 22 323 4.8 8.0 0.00 0.00 0.00 65 1013.8
20260905171508 22 255 8.0 8.0 0.00 0.00 0.00 64 1014.0
20260905171003 22 182 0.0 0.0 0.00 0.00 0.00 69 1014.0
20260905170500 21 97 1.6 3.2 0.00 0.00 0.00 70 1014.1
20260905165954 21 359 3.2 3.2 0.00 0.00 0.00 69 1013.9
20260905165449 22 78 1.6 1.6 0.00 0.00 0.00 70 1014.1
20260905164944 21 229 4.8 8.0 0.00 0.00 0.00 68 1014.2
20260905164444 21 323 6.4 9.7 0.00 0.00 0.00 68 1013.9
20260905163939 21 251 4.8 4.8 0.00 0.00 0.00 70 1014.0
20260905163436 21 216 1.6 1.6 0.00 0.00 0.00 69 1014.1
20260905162931 22 284 9.7 11.3 0.00 0.00 0.00 66 1014.1
20260905162426 22 150 0.0 1.6 0.00 0.00 0.00 67 1013.9
20260905161921 21 12 4.8 8.0 0.00 0.00 0.00 67 1013.9
20260905161420 22 61 4.8 4.8 0.00 0.00 0.00 67 1014.3
20260905160918 22 263 4.8 8.0 0.00 0.00 0.00 67 1014.1
20260905160412 22 315 4.8 8.0 0.00 0.00 0.00 67 1014.2
20260905155906 22 277 8.0 11.3 0.00 0.00 0.00 66 1014.2
20260905155401 21 252 11.3 16.1 0.00 0.00 0.00 68 1014.3
20260905154900 22 102 1.6 3.2 0.00 0.00 0.00 68 1014.3
20260905154356 21 226 1.6 3.2 0.00 0.00 0.00 70 1014.3
20260905153851 21 42 4.8 4.8 0.00 0.00 0.00 69 1014.4
20260905153347 21 216 1.6 1.6 0.00 0.00 0.00 69 1014.5
20260905152847 22 331 3.2 4.8 0.00 0.00 0.00 67 1014.4
20260905152346 21 194 3.2 3.2 0.00 0.00 0.00 71 1014.1
20260905151841 21 226 1.6 4.8 0.00 0.00 0.00 71 1014.4
20260905151337 21 250 4.8 9.7 0.00 0.00 0.00 72 1014.4
20260905150837 21 323 3.2 3.2 0.00 0.00 0.00 72 1014.7
20260905150331 21 255 1.6 3.2 0.00 0.00 0.00 73 1014.7
20260905145828 21 323 8.0 9.7 0.00 0.00 0.00 71 1014.4
20260905145323 21 11 4.8 4.8 0.00 0.00 0.00 72 1014.4
20260905144822 21 191 1.6 1.6 0.00 0.00 0.00 73 1014.4
20260905144318 21 281 4.8 4.8 0.00 0.00 0.00 74 1014.3
20260905143816 20 223 3.2 3.2 0.00 0.00 0.00 76 1014.4
20260905143311 20 252 9.7 11.3 0.00 0.00 0.00 77 1014.3
20260905142810 19 231 3.2 4.8 0.00 0.00 0.00 79 1014.5
20260905142306 19 215 4.8 4.8 0.00 0.00 0.00 80 1014.5
20260905141800 19 191 1.6 3.2 0.00 0.00 0.00 81 1014.6
20260905141255 19 348 4.8 4.8 0.00 0.00 0.00 81 1014.4
20260905140751 20 287 8.0 9.7 0.00 0.00 0.00 79 1014.5
20260905140251 20 208 1.6 3.2 0.00 0.00 0.00 79 1014.3
20260905135749 20 276 4.8 4.8 0.00 0.00 0.00 80 1014.5
20260905135245 20 214 4.8 8.0 0.00 0.00 0.00 81 1014.4
20260905134744 20 39 3.2 4.8 0.00 0.00 0.00 82 1014.6
20260905134239 20 283 4.8 8.0 0.00 0.00 0.00 83 1014.5
20260905133734 18 202 3.2 3.2 0.00 0.00 0.00 85 1014.7
20260905133229 18 279 3.2 4.8 0.00 0.00 0.00 86 1014.5
20260905132728 18 21 6.4 8.0 0.00 0.00 0.00 86 1014.7
20260905132224 18 177 1.6 1.6 0.00 0.00 0.00 90 1014.6
20260905131719 17 178 1.6 1.6 0.00 0.00 0.00 94 1014.2
20260905131214 17 161 1.6 1.6 0.00 0.00 0.00 95 1014.4
20260905130713 17 172 1.6 1.6 0.00 0.00 0.00 95 1014.4
20260905130208 16 135 1.6 1.6 0.00 0.00 0.00 95 1014.4
20260905125703 16 182 1.6 1.6 0.00 0.00 0.00 95 1014.8
20260905125158 16 170 0.0 0.0 0.00 0.00 0.00 95 1014.8
20260905124654 16 170 0.0 0.0 0.00 0.00 0.00 95 1014.7
20260905124150 16 170 0.0 0.0 0.00 0.00 0.00 95 1014.9
20260905123645 16 162 0.0 0.0 0.00 0.00 0.00 95 1015.0
20260905123142 15 185 0.0 0.0 0.00 0.00 0.00 95 1015.1
20260905122641 15 199 1.6 1.6 0.00 0.00 0.00 95 1015.0
20260905122136 15 187 0.0 0.0 0.00 0.00 0.00 95 1015.0
20260905121631 15 200 1.6 1.6 0.00 0.00 0.00 95 1014.9
20260905121127 14 180 0.0 0.0 0.00 0.00 0.00 95 1014.9
20260905120625 14 180 0.0 0.0 0.00 0.00 0.00 95 1014.6
20260905120121 14 205 1.6 1.6 0.00 0.00 0.00 95 1014.6
20260905115620 15 180 0.0 0.0 0.00 0.00 0.00 95 1014.7
20260905115115 15 197 0.0 0.0 0.00 0.00 0.00 95 1014.6
20260905114614 15 164 0.0 0.0 0.00 0.00 0.00 95 1014.3
20260905114113 14 129 0.0 1.6 0.00 0.00 0.00 95 1014.1
20260905113609 14 173 0.0 0.0 0.00 0.00 0.00 95 1014.4
20260905113104 14 155 0.0 0.0 0.00 0.00 0.00 95 1014.5
20260905112558 14 212 0.0 0.0 0.00 0.00 0.00 95 1014.3
20260905112054 14 189 0.0 0.0 0.00 0.00 0.00 95 1014.3
20260905111549 14 114 3.2 3.2 0.00 0.00 0.00 95 1014.2
20260905111048 14 67 1.6 3.2 0.00 0.00 0.00 95 1014.0
20260905110547 14 178 0.0 0.0 0.00 0.00 0.00 95 1014.3
20260905110043 14 189 0.0 0.0 0.00 0.00 0.00 95 1014.4
20260905105542 14 207 0.0 0.0 0.00 0.00 0.00 95 1014.1
20260905105042 13 185 0.0 0.0 0.00 0.00 0.00 95 1013.9
20260905104538 13 199 0.0 0.0 0.00 0.00 0.00 95 1013.8
20260905104037 13 192 0.0 0.0 0.00 0.00 0.00 95 1013.7
20260905103533 13 180 0.0 0.0 0.00 0.00 0.00 95 1013.6
20260905103029 13 200 0.0 0.0 0.00 0.00 0.00 95 1013.7
20260905102524 13 189 0.0 0.0 0.00 0.00 0.00 95 1013.8
20260905102021 13 175 0.0 0.0 0.00 0.00 0.00 95 1013.5
20260905101519 13 182 0.0 0.0 0.00 0.00 0.00 95 1013.8
20260905101017 13 153 0.0 0.0 0.00 0.00 0.00 95 1013.8
20260905100514 13 153 0.0 0.0 0.00 0.00 0.00 95 1013.6
20260905100008 13 152 0.0 0.0 0.00 0.00 0.00 95 1013.5
20260905095503 13 152 0.0 0.0 0.00 0.00 0.00 95 1013.4
20260905094957 13 152 0.0 0.0 0.00 0.00 0.00 95 1013.4
20260905094453 13 152 0.0 0.0 0.00 0.00 0.00 95 1013.3
20260905093951 13 152 0.0 0.0 0.00 0.00 0.00 95 1013.3
20260905093447 13 154 0.0 0.0 0.00 0.00 0.00 95 1013.1
20260905092943 13 153 0.0 0.0 0.00 0.00 0.00 95 1013.5
20260905092438 13 144 0.0 0.0 0.00 0.00 0.00 95 1013.4
20260905091932 13 144 0.0 0.0 0.00 0.00 0.00 95 1013.4
20260905091427 13 144 0.0 0.0 0.00 0.00 0.00 95 1013.4
20260905090926 13 144 0.0 0.0 0.00 0.00 0.00 95 1013.5
20260905090422 13 143 0.0 0.0 0.00 0.00 0.00 95 1013.6
20260905085921 13 142 0.0 0.0 0.00 0.00 0.00 95 1013.5
20260905085420 13 151 0.0 0.0 0.00 0.00 0.00 95 1013.6
20260905084917 13 166 0.0 0.0 0.00 0.00 0.00 95 1013.6
20260905084416 13 148 0.0 0.0 0.00 0.00 0.00 95 1013.5
20260905083911 13 145 0.0 0.0 0.00 0.00 0.00 95 1013.4
20260905083407 13 172 0.0 0.0 0.00 0.00 0.00 95 1013.5
20260905082902 13 171 0.0 0.0 0.00 0.00 0.00 95 1013.4
20260905082358 13 171 0.0 0.0 0.00 0.00 0.00 95 1013.6
20260905081853 13 171 0.0 0.0 0.00 0.00 0.00 95 1013.3
20260905081348 13 171 0.0 0.0 0.00 0.00 0.00 95 1013.5
20260905080846 13 172 0.0 0.0 0.00 0.00 0.00 95 1013.4
20260905080341 13 171 0.0 0.0 0.00 0.00 0.00 95 1013.4
20260905075839 13 172 0.0 0.0 0.00 0.00 0.00 95 1013.7
20260905075334 13 171 0.0 0.0 0.00 0.00 0.00 95 1013.9
20260905074833 13 171 0.0 0.0 0.00 0.00 0.00 95 1013.6
20260905074329 13 182 0.0 0.0 0.00 0.00 0.00 95 1013.7
20260905073825 13 182 0.0 0.0 0.00 0.00 0.00 95 1013.6
20260905073319 13 183 0.0 0.0 0.00 0.00 0.00 95 1013.6
20260905072814 14 182 0.0 0.0 0.00 0.00 0.00 95 1013.6
20260905072309 14 176 0.0 0.0 0.00 0.00 0.00 95 1013.8
20260905071806 14 175 0.0 0.0 0.00 0.00 0.00 95 1013.6
20260905071302 13 175 0.0 0.0 0.00 0.00 0.00 95 1013.6
20260905070756 14 174 0.0 0.0 0.00 0.00 0.00 95 1013.8
20260905070252 14 174 0.0 0.0 0.00 0.00 0.00 95 1013.6
20260905065751 14 174 0.0 0.0 0.00 0.00 0.00 95 1013.9
20260905065244 15 174 0.0 0.0 0.00 0.00 0.00 95 1014.1
20260905064740 15 174 0.0 0.0 0.00 0.00 0.00 95 1014.0
20260905064235 15 193 0.0 0.0 0.00 0.00 0.00 95 1013.5
20260905063728 15 187 0.0 0.0 0.00 0.00 0.00 95 1013.9
20260905063224 15 189 0.0 0.0 0.00 0.00 0.00 95 1014.0
20260905062720 15 188 0.0 0.0 0.00 0.00 0.00 95 1013.9
20260905062220 15 187 0.0 0.0 0.00 0.00 0.00 95 1014.1
20260905061714 15 183 0.0 0.0 0.00 0.00 0.00 95 1014.2
20260905061209 15 183 0.0 0.0 0.00 0.00 0.00 95 1014.3
20260905060704 15 154 0.0 0.0 0.00 0.00 0.00 95 1014.0
20260905060201 15 196 0.0 0.0 0.00 0.00 0.00 95 1014.1
20260905055659 15 196 0.0 0.0 0.00 0.00 0.00 95 1014.1
20260905055154 15 195 0.0 0.0 0.00 0.00 0.00 95 1014.2
20260905054649 15 195 0.0 0.0 0.00 0.00 0.00 95 1014.0
20260905054145 15 195 0.0 0.0 0.00 0.00 0.00 95 1014.1
20260905053645 15 196 0.0 0.0 0.00 0.00 0.00 95 1014.3
20260905053140 15 194 0.0 0.0 0.00 0.00 0.00 95 1014.2
20260905052639 15 178 0.0 0.0 0.00 0.00 0.00 95 1014.2
20260905052135 15 167 0.0 0.0 0.00 0.00 0.00 95 1014.2
20260905051629 15 167 0.0 0.0 0.00 0.00 0.00 95 1014.6
20260905051126 15 166 0.0 0.0 0.00 0.00 0.00 95 1014.2
20260905050622 15 194 0.0 0.0 0.00 0.00 0.00 95 1014.3
20260905050119 15 193 0.0 0.0 0.00 0.00 0.00 95 1014.4
20260905045618 15 186 0.0 0.0 0.00 0.00 0.00 95 1014.4
20260905045113 15 188 0.0 0.0 0.00 0.00 0.00 95 1014.4
20260905044608 15 197 0.0 0.0 0.00 0.00 0.00 95 1014.4
20260905044103 15 157 0.0 0.0 0.00 0.00 0.00 95 1014.5
20260905043601 15 181 0.0 0.0 0.00 0.00 0.00 95 1014.3
20260905043057 15 181 0.0 0.0 0.00 0.00 0.00 95 1014.4
20260905042555 15 181 0.0 0.0 0.00 0.00 0.00 95 1014.5
20260905042051 15 181 0.0 0.0 0.00 0.00 0.00 95 1014.6
20260905041546 15 184 0.0 0.0 0.00 0.00 0.00 95 1014.6
20260905041042 15 183 0.0 0.0 0.00 0.00 0.00 95 1014.5
20260905040541 16 187 0.0 0.0 0.00 0.00 0.00 95 1014.6
20260905040040 15 178 0.0 0.0 0.00 0.91 0.91 94 1014.6
20260905035535 16 174 0.0 0.0 0.00 0.91 0.91 94 1014.6
20260905035032 16 166 0.0 0.0 0.00 0.91 0.91 94 1014.6
20260905034527 16 176 0.0 0.0 0.00 0.91 0.91 94 1014.5
20260905034027 16 168 0.0 0.0 0.00 0.91 0.91 94 1014.6
20260905033521 16 167 0.0 0.0 0.00 0.91 0.91 93 1014.3
20260905033017 16 167 0.0 0.0 0.00 0.91 0.91 93 1014.6
20260905032512 16 167 0.0 0.0 0.00 0.91 0.91 93 1014.6
20260905032007 16 167 0.0 0.0 0.00 0.91 0.91 93 1014.5
20260905031503 16 167 0.0 0.0 0.00 0.91 0.91 93 1014.7
20260905030957 16 167 0.0 0.0 0.00 0.91 0.91 93 1014.4
20260905030453 16 168 0.0 0.0 0.00 0.91 0.91 92 1014.6
20260905025951 16 167 0.0 0.0 0.00 0.91 0.91 92 1014.4
20260905025448 16 168 0.0 0.0 0.00 0.91 0.91 92 1014.4
20260905024944 16 151 0.0 0.0 0.00 0.91 0.91 92 1014.5
20260905024444 16 150 0.0 0.0 0.00 0.91 0.91 92 1014.6
20260905023940 16 135 1.6 1.6 0.00 0.91 0.91 92 1014.5
20260905023434 16 129 1.6 3.2 0.00 0.91 0.91 91 1014.5
20260905022933 17 143 0.0 0.0 0.00 0.91 0.91 91 1014.2
20260905022429 17 154 0.0 1.6 0.00 0.91 0.91 90 1014.4
20260905021924 17 155 0.0 0.0 0.00 0.91 0.91 90 1014.6
20260905021424 17 158 0.0 0.0 0.00 0.91 0.91 90 1014.5
20260905020919 17 164 0.0 0.0 0.00 0.91 0.91 89 1014.4
20260905020418 17 163 0.0 0.0 0.00 0.91 0.91 89 1014.5
20260905015913 17 93 1.6 1.6 0.00 0.91 0.91 89 1014.2
20260905015411 18 142 0.0 0.0 0.00 0.91 0.91 89 1014.8
20260905014910 18 105 0.0 0.0 0.00 0.91 0.91 89 1014.8
20260905014406 18 152 0.0 0.0 0.00 0.91 0.91 89 1014.8
20260905013901 18 152 0.0 0.0 0.00 0.91 0.91 88 1014.8
20260905013357 18 153 0.0 0.0 0.00 0.91 0.91 88 1014.8
20260905012852 18 156 0.0 0.0 0.00 0.91 0.91 88 1014.8
20260905012348 18 137 0.0 0.0 0.00 0.91 0.91 88 1014.8
20260905011844 18 150 0.0 0.0 0.00 0.91 0.91 88 1014.8
20260905011339 18 150 0.0 0.0 0.00 0.91 0.91 88 1014.4
20260905010835 18 149 0.0 0.0 0.00 0.91 0.91 87 1014.5
20260905010330 18 150 0.0 0.0 0.00 0.91 0.91 87 1014.4
20260905005826 18 150 0.0 0.0 0.00 0.91 0.91 87 1014.3
20260905005322 18 150 0.0 0.0 0.00 0.91 0.91 87 1014.5
20260905004816 18 150 0.0 0.0 0.00 0.91 0.91 87 1014.5
20260905004311 18 150 0.0 0.0 0.00 0.91 0.91 87 1014.6
20260905003806 18 111 0.0 0.0 0.00 0.91 0.91 87 1014.4
20260905003303 18 147 0.0 0.0 0.00 0.91 0.91 87 1014.5
20260905002758 19 150 0.0 0.0 0.00 0.91 0.91 86 1014.3
20260905002257 19 156 0.0 0.0 0.00 0.91 0.91 86 1014.4
20260905001752 19 157 0.0 0.0 0.00 0.91 0.91 85 1014.2
20260905001252 19 157 0.0 0.0 0.00 0.91 0.91 84 1014.4
20260905000747 19 144 0.0 0.0 0.00 0.91 0.91 84 1014.2
20260905000243 19 159 0.0 0.0 0.00 0.91 0.91 83 1014.2
20260904235738 19 158 0.0 0.0 0.00 0.91 0.91 84 1014.1
20260904235232 19 182 0.0 0.0 0.00 0.91 0.91 84 1014.2
20260904234727 19 147 0.0 0.0 0.00 0.91 0.91 82 1014.1
20260904234222 19 109 0.0 0.0 0.00 0.91 0.91 82 1013.9
20260904233718 20 148 0.0 0.0 0.00 0.91 0.91 82 1014.2
20260904233214 20 148 0.0 0.0 0.00 0.91 0.91 82 1014.0
20260904232711 20 156 0.0 0.0 0.00 0.91 0.91 82 1014.0
20260904232207 20 172 0.0 0.0 0.00 0.91 0.91 81 1014.2
20260904231702 20 150 0.0 0.0 0.00 0.91 0.91 81 1014.1
20260904231157 20 107 1.6 3.2 0.00 0.91 0.91 80 1014.1
20260904230657 20 106 1.6 1.6 0.00 0.91 0.91 81 1013.9
20260904230152 20 143 1.6 1.6 0.00 0.91 0.91 80 1014.1
20260904225650 21 100 1.6 3.2 0.00 0.91 0.91 80 1013.9
20260904225145 21 110 1.6 1.6 0.00 0.91 0.91 78 1013.8
20260904224639 21 125 1.6 1.6 0.00 0.91 0.91 77 1013.6
20260904224139 21 116 1.6 1.6 0.00 0.91 0.91 76 1013.7
20260904223633 22 80 1.6 3.2 0.00 0.91 0.91 75 1013.8
20260904223129 22 101 1.6 3.2 0.00 0.91 0.91 73 1014.0
20260904222625 22 152 1.6 1.6 0.00 0.91 0.91 74 1013.9
20260904222120 22 144 1.6 1.6 0.00 0.91 0.91 73 1013.7
20260904221620 22 141 0.0 0.0 0.00 0.91 0.91 72 1013.8
20260904221119 22 147 0.0 0.0 0.00 0.91 0.91 72 1013.7
20260904220614 22 171 0.0 0.0 0.00 0.91 0.91 71 1013.7
20260904220110 23 81 3.2 3.2 0.00 0.91 0.91 70 1013.5
20260904215609 23 93 1.6 3.2 0.00 0.91 0.91 69 1013.6
20260904215106 23 125 1.6 1.6 0.00 0.91 0.91 68 1013.7
20260904214600 25 261 3.2 4.8 0.00 0.91 0.91 65 1013.5
20260904214056 25 237 3.2 3.2 0.00 0.91 0.91 65 1013.5
20260904213554 25 276 6.4 8.0 0.00 0.91 0.91 62 1013.5
20260904213051 25 291 6.4 11.3 0.00 0.91 0.91 63 1013.4
20260904212550 25 197 1.6 1.6 0.00 0.91 0.91 64 1013.7
20260904212045 25 275 6.4 9.7 0.00 0.91 0.91 63 1013.5
20260904211545 24 269 11.3 11.3 0.00 0.91 0.91 63 1013.6
20260904211040 25 228 6.4 8.0 0.00 0.91 0.91 62 1013.5
20260904210539 25 184 1.6 1.6 0.00 0.91 0.91 64 1013.4
20260904210037 25 192 3.2 4.8 0.00 0.91 0.91 61 1013.7
20260904205536 25 248 6.4 8.0 0.00 0.91 0.91 62 1013.4
20260904205033 25 250 6.4 8.0 0.00 0.91 0.91 61 1013.6
20260904204529 25 210 3.2 4.8 0.00 0.91 0.91 63 1013.8
20260904204025 25 67 1.6 3.2 0.00 0.91 0.91 63 1013.7
20260904203520 25 208 3.2 3.2 0.00 0.91 0.91 62 1013.8
20260904203017 25 212 1.6 3.2 0.00 0.91 0.91 62 1013.8
20260904202512 25 247 4.8 8.0 0.00 0.91 0.91 61 1013.9
20260904202009 26 309 8.0 11.3 0.00 0.91 0.91 59 1014.0
20260904201503 25 346 6.4 9.7 0.00 0.91 0.91 60 1014.1
20260904200959 25 322 6.4 11.3 0.00 0.91 0.91 61 1014.1
20260904200457 25 308 4.8 8.0 0.00 0.91 0.91 61 1014.1
20260904195953 25 204 1.6 1.6 0.00 0.91 0.91 62 1014.0
20260904195451 25 262 3.2 3.2 0.00 0.91 0.91 62 1014.3
20260904194950 25 301 6.4 9.7 0.00 0.91 0.91 61 1014.4
20260904194445 25 264 8.0 9.7 0.00 0.91 0.91 62 1014.2
20260904193940 26 196 1.6 3.2 0.00 0.91 0.91 60 1014.0
20260904193436 25 226 3.2 3.2 0.00 0.91 0.91 62 1014.3
20260904192931 25 290 8.0 12.9 0.00 0.91 0.91 63 1014.3
20260904192426 25 340 6.4 9.7 0.00 0.91 0.91 63 1014.3
20260904191922 25 325 11.3 12.9 0.00 0.91 0.91 62 1014.4
20260904191419 25 206 1.6 1.6 0.00 0.91 0.91 65 1014.4
20260904190915 25 151 0.0 1.6 0.00 0.91 0.91 66 1014.4
20260904190410 25 283 9.7 12.9 0.00 0.91 0.91 63 1014.5